Location: K�ln
(50.9455°N, 6.9544°E)
Time: 14:30:44
(UTC+01:00)

ISS - Pass Details

Date: 04 January 2018
Orbit: 402 x 406 km, 51.6° (Epoch: 16 January)

Event Time Altitude Azimuth Distance (km) Brightness Sun altitude
Exits shadow 06:55:54 31° 272° (W) 744 -3.1 -14.6°
Maximum altitude 06:57:20 79° 354° (N) 419 -3.9 -14.4°
Drops below altitude 10° 07:00:38 10° 83° (E) 1,469 0.0 -13.9°
Sets 07:02:43 0° 84° (E) 2,331 1.3 -13.6°
